FW7908 Weather Reports


time (UTC)temp
C
wind
direction
speed
KPH
gust
KPH
rain 1hr
cm
rain 24hr
cm
rain mn
cm
humidity
%
barometer
mb
20260510070056 18 0 0.0 0.0 0.00 0.51 0.00 98 1013.2
20260510064628 18 0 0.0 0.0 0.00 0.51 0.00 98 1013.2
20260510063052 18 0 0.0 0.0 0.00 0.51 0.00 98 1013.2
20260510061551 17 0 0.0 0.0 0.00 0.51 0.00 98 1013.5
20260510060055 17 0 0.0 0.0 0.00 0.51 0.00 97 1013.4
20260510054549 17 0 0.0 0.0 0.00 0.51 0.00 97 1013.4
20260510053050 17 0 0.0 0.0 0.00 0.51 0.00 97 1013.4
20260510051556 18 0 0.0 0.0 0.00 0.51 0.00 97 1013.3
20260510050055 18 0 0.0 0.0 0.00 0.51 0.00 97 1013.4
20260510044557 18 0 0.0 0.0 0.00 0.51 0.51 97 1013.2
20260510043106 18 0 0.0 0.0 0.00 0.51 0.51 97 1013.2
20260510041601 18 0 0.0 1.6 0.00 0.51 0.51 97 1013.4
20260510040058 18 186 0.0 3.2 0.00 0.51 0.51 97 1013.6
20260510034616 18 195 0.0 3.2 0.00 0.53 0.51 97 1013.7
20260510033105 18 0 0.0 1.6 0.00 0.53 0.51 97 1013.6
20260510031558 19 0 0.0 3.2 0.00 0.53 0.51 97 1013.4
20260510030054 19 0 0.0 4.8 0.00 0.53 0.51 96 1013.7
20260510024558 19 0 0.0 3.2 0.00 0.53 0.51 96 1013.6
20260510023054 19 206 0.0 1.6 0.00 0.53 0.51 96 1013.6
20260510021604 20 0 0.0 0.0 0.00 0.53 0.51 96 1013.0
20260510020054 20 0 0.0 1.6 0.00 0.53 0.51 96 1012.8
20260510014601 20 0 0.0 0.0 0.00 0.53 0.51 95 1012.9
20260510013117 20 0 0.0 1.6 0.00 0.53 0.51 95 1012.6
20260510011555 20 0 0.0 6.4 0.00 0.53 0.51 95 1012.2
20260510010056 20 327 6.4 11.3 0.00 0.53 0.51 95 1011.6
20260510004555 20 217 1.6 8.0 0.00 0.53 0.51 94 1010.8
20260510003104 20 193 1.6 8.0 0.00 0.53 0.51 94 1011.7
20260510001552 20 220 1.6 6.4 0.00 0.53 0.51 94 1011.9
20260510000113 20 0 0.0 1.6 0.00 0.53 0.51 94 1012.0
20260509234551 20 0 0.0 3.2 0.00 0.53 0.51 93 1012.0
20260509233054 21 240 1.6 4.8 0.00 0.53 0.51 92 1011.9
20260509231556 20 0 0.0 6.4 0.00 0.53 0.51 92 1011.8
20260509230058 21 0 0.0 6.4 0.00 0.53 0.51 93 1011.4
20260509224553 21 0 0.0 4.8 0.00 0.53 0.51 91 1011.6
20260509223056 21 0 0.0 8.0 0.00 0.53 0.51 92 1011.5
20260509221600 21 0 4.8 11.3 0.00 0.53 0.51 93 1011.3
20260509220050 20 32 0.0 6.4 0.00 0.53 0.51 94 1011.6
20260509214602 20 171 0.0 11.3 0.05 0.53 0.51 95 1011.6
20260509213054 20 191 1.6 6.4 0.08 0.53 0.51 94 1011.4
20260509211553 21 45 3.2 8.0 0.08 0.53 0.51 94 1011.5
20260509210054 21 199 0.0 8.0 0.08 0.53 0.51 94 1011.3
20260509204549 21 0 1.6 9.7 0.03 0.48 0.46 91 1011.2
20260509203052 21 283 1.6 6.4 0.00 0.46 0.43 90 1011.6
20260509201553 22 5 0.0 4.8 0.00 0.46 0.43 89 1011.7
20260509200049 22 0 0.0 1.6 0.00 0.46 0.43 88 1011.6
20260509194555 22 0 0.0 1.6 0.00 0.46 0.43 88 1011.8
20260509193058 22 0 0.0 8.0 0.00 0.46 0.43 87 1011.6
20260509191550 23 50 0.0 6.4 0.00 0.46 0.43 88 1011.6
20260509190054 22 0 0.0 3.2 0.00 0.46 0.43 90 1011.6
20260509184607 22 0 0.0 0.0 0.00 0.46 0.43 90 1011.6
20260509183109 22 0 0.0 1.6 0.00 0.46 0.43 88 1011.8
20260509181558 22 0 0.0 4.8 0.00 0.46 0.43 88 1011.9
20260509180103 22 0 0.0 4.8 0.00 0.46 0.43 89 1011.8
20260509174557 22 0 0.0 1.6 0.00 0.46 0.43 89 1012.3
20260509173104 22 0 0.0 1.6 0.00 0.46 0.43 88 1012.3
20260509171551 22 49 0.0 3.2 0.00 0.46 0.43 90 1012.3
20260509170057 22 0 0.0 3.2 0.00 0.46 0.43 89 1012.8
20260509164553 22 346 1.6 4.8 0.00 0.48 0.43 89 1012.8
20260509163056 22 0 0.0 0.0 0.00 0.48 0.43 89 1012.8
20260509161552 22 0 0.0 1.6 0.00 0.48 0.43 90 1012.9
20260509160052 22 0 0.0 1.6 0.00 0.48 0.43 90 1012.9
20260509154550 21 0 0.0 3.2 0.00 0.58 0.43 92 1012.7
20260509153056 21 0 0.0 1.6 0.00 0.58 0.43 93 1012.5
20260509151553 21 0 0.0 0.0 0.00 0.58 0.43 95 1012.5
20260509150057 20 0 0.0 1.6 0.00 0.58 0.43 97 1012.3
20260509144552 20 0 0.0 1.6 0.00 2.46 0.43 98 1012.3
20260509143059 20 0 0.0 1.6 0.00 2.46 0.43 98 1012.2
20260509141559 20 0 0.0 1.6 0.00 2.46 0.43 98 1012.1
20260509140059 19 0 0.0 1.6 0.00 2.46 0.43 98 1012.1
20260509134557 19 0 0.0 4.8 0.00 3.61 0.43 98 1012.1
20260509133056 18 0 0.0 0.0 0.00 3.61 0.43 98 1012.0
20260509131557 18 0 0.0 0.0 0.00 3.61 0.43 98 1012.0
20260509130057 18 69 0.0 0.0 0.00 3.61 0.43 98 1011.7
20260509124554 18 0 0.0 1.6 0.00 6.38 0.43 98 1012.0
20260509123118 18 0 0.0 1.6 0.00 6.38 0.43 98 1012.2
20260509121558 18 0 0.0 1.6 0.00 6.38 0.43 98 1011.8
20260509120055 17 0 0.0 0.0 0.00 6.38 0.43 98 1012.2
20260509114554 17 7 0.0 1.6 0.08 6.63 0.43 98 1012.1
20260509113050 17 0 0.0 1.6 0.08 6.63 0.43 98 1012.0
20260509111551 17 0 0.0 0.0 0.08 6.63 0.43 97 1011.7
20260509110053 17 0 0.0 0.0 0.15 6.63 0.43 97 1011.9
20260509104546 17 0 0.0 1.6 0.10 6.55 0.36 97 1011.9
20260509103104 17 60 0.0 9.7 0.10 6.55 0.36 97 1011.8
20260509101552 17 21 0.0 12.9 0.10 6.55 0.36 97 1011.8
20260509100059 18 46 9.7 19.3 0.03 6.48 0.28 97 1012.1
20260509094556 19 315 6.4 12.9 0.00 6.45 0.25 98 1012.3
20260509093057 20 18 0.0 4.8 0.03 6.45 0.25 98 1011.7
20260509091553 20 0 0.0 1.6 0.25 6.45 0.25 98 1011.3
20260509090056 20 0 0.0 0.0 0.25 6.45 0.25 98 1011.2
20260509084552 20 0 0.0 1.6 0.25 6.45 0.25 98 1010.9
20260509083101 20 0 0.0 0.0 0.23 6.43 0.23 98 1010.6
20260509081555 19 0 0.0 0.0 0.00 6.20 0.00 98 1010.8
20260509080059 19 0 0.0 0.0 0.00 6.20 0.00 98 1010.7
20260509074605 19 0 0.0 1.6 0.00 6.20 0.00 98 1010.9
20260509073053 19 0 0.0 1.6 0.00 6.20 0.00 98 1011.0
20260509071604 19 0 0.0 1.6 0.00 6.20 0.00 97 1011.0